QPF
0.11 0.11 0.09 0.09 0.09 0.09 0.10 0.11 0.10 0.10 0.09 0.07 0.04 0.02 0.01 0.02 0.02 0.04 0.08 0.06 0.04 0.03 0.04 0.06 0.05 0.04 0.04 0.05 0.04 0.02 0.02 0.02 0.02 0.02 0.02 0.03 0.03 0.02 0.02 0.02 0.02 0.02 0.01
0.11 0.11 0.10 0.08 0.05 0.06 0.08 0.10 0.09 0.08 0.08 0.08 0.07 0.04 0.03 0.03 0.02 0.02 0.04 0.06 0.03 0.03 0.03 0.05 0.06 0.07 0.06 0.05 0.05 0.05 0.04 0.03 0.03 0.03 0.02 0.03 0.03 0.02 0.01 0.02 0.02 0.01 0.01
0.08 0.08 0.09 0.08 0.06 0.07 0.08 0.08 0.10 0.09 0.08 0.09 0.10 0.08 0.07 0.05 0.04 0.03 0.03 0.05 0.05 0.04 0.03 0.03 0.06 0.09 0.09 0.08 0.08 0.09 0.07 0.05 0.04 0.03 0.03 0.02 0.02 0.02 0.02 0.01 0.01 0.01 0.01
0.05 0.07 0.09 0.08 0.07 0.05 0.06 0.08 0.09 0.10 0.10 0.09 0.08 0.06 0.07 0.07 0.04 0.04 0.03 0.04 0.06 0.05 0.07 0.06 0.05 0.06 0.08 0.10 0.10 0.11 0.09 0.07 0.05 0.04 0.04 0.02 0.02 0.02 0.02 0.01 0.01 0.01 0.01
0.05 0.06 0.07 0.07 0.05 0.05 0.05 0.05 0.08 0.10 0.09 0.08 0.07 0.07 0.07 0.06 0.06 0.04 0.04 0.06 0.05 0.05 0.07 0.08 0.05 0.05 0.06 0.10 0.11 0.12 0.13 0.11 0.08 0.05 0.05 0.03 0.02 0.02 0.01 0.01 0.01 0.01 0.00
0.04 0.05 0.07 0.07 0.07 0.06 0.06 0.06 0.07 0.08 0.07 0.07 0.06 0.08 0.06 0.05 0.05 0.06 0.04 0.06 0.06 0.03 0.06 0.10 0.13 0.08 0.06 0.07 0.09 0.10 0.13 0.15 0.14 0.11 0.08 0.05 0.05 0.03 0.02 0.01 0.01 0.01 0.01
0.03 0.03 0.05 0.07 0.06 0.06 0.05 0.06 0.06 0.06 0.06 0.05 0.07 0.07 0.04 0.04 0.06 0.06 0.06 0.06 0.05 0.04 0.06 0.11 0.14 0.15 0.14 0.10 0.08 0.08 0.12 0.16 0.16 0.16 0.13 0.10 0.09 0.07 0.05 0.03 0.02 0.02 0.02
0.01 0.02 0.03 0.03 0.03 0.03 0.04 0.03 0.03 0.04 0.03 0.03 0.05 0.06 0.05 0.06 0.06 0.04 0.05 0.05 0.05 0.06 0.05 0.06 0.09 0.13 0.15 0.15 0.11 0.11 0.14 0.16 0.18 0.17 0.16 0.16 0.13 0.10 0.08 0.05 0.03 0.02 0.02
0.01 0.02 0.02 0.02 0.02 0.02 0.03 0.02 0.02 0.02 0.03 0.03 0.04 0.04 0.04 0.06 0.07 0.05 0.03 0.04 0.05 0.05 0.05 0.05 0.06 0.09 0.12 0.15 0.15 0.14 0.16 0.15 0.16 0.18 0.18 0.18 0.18 0.15 0.13 0.10 0.07 0.04 0.03
0.00 0.01 0.01 0.01 0.01 0.01 0.01 0.01 0.02 0.01 0.02 0.03 0.04 0.03 0.03 0.04 0.05 0.05 0.03 0.03 0.02 0.03 0.03 0.02 0.02 0.04 0.07 0.11 0.14 0.14 0.13 0.12 0.14 0.18 0.19 0.18 0.19 0.17 0.14 0.13 0.11 0.08 0.05
0.00 0.00 0.00 0.00 0.00 0.00 0.00 0.00 0.00 0.00 0.01 0.01 0.01 0.01 0.01 0.02 0.03 0.03 0.04 0.03 0.02 0.01 0.01 0.01 0.01 0.02 0.03 0.07 0.11 0.10 0.10 0.11 0.11 0.16 0.20 0.20 0.19 0.19 0.15 0.12 0.11 0.10 0.08
0.00 0.00 0.00 0.00 0.00 0.00 0.00 0.00 0.00 0.00 0.00 0.00 0.01 0.01 0.01 0.01 0.01 0.01 0.02 0.03 0.02 0.01 0.00 0.01 0.01 0.01 0.01 0.04 0.05 0.04 0.05 0.07 0.09 0.10 0.12 0.16 0.18 0.19 0.18 0.16 0.14 0.13 0.11
0.01 0.00 0.00 0.00 0.00 0.00 0.00 0.00 0.00 0.00 0.00 0.00 0.00 0.00 0.00 0.00 0.00 0.01 0.01 0.01 0.01 0.00 0.00 0.00 0.00 0.00 0.01 0.02 0.03 0.02 0.01 0.02 0.02 0.04 0.05 0.07 0.09 0.12 0.14 0.16 0.17 0.17 0.16
0.00 0.00 0.00 0.00 0.00 0.00 0.00 0.00 0.00 0.00 0.00 0.00 0.00 0.00 0.00 0.00 0.00 0.00 0.00 0.00 0.00 0.00 0.00 0.00 0.00 0.00 0.00 0.01 0.01 0.00 0.01 0.01 0.01 0.01 0.02 0.06 0.08 0.09 0.10 0.12 0.14 0.16 0.17
0.00 0.00 0.00 0.00 0.00 0.00 0.00 0.00 0.00 0.00 0.00 0.00 0.00 0.00 0.00 0.00 0.00 0.00 0.00 0.00 0.00 0.00 0.00 0.01 0.00 0.00 0.00 0.01 0.00 0.00 0.02 0.01 0.00 0.00 0.01 0.02 0.04 0.06 0.08 0.09 0.11 0.14 0.14
0.00 0.00 0.00 0.00 0.00 0.00 0.00 0.00 0.00 0.00 0.00 0.00 0.00 0.00 0.00 0.00 0.00 0.00 0.00 0.00 0.00 0.00 0.00 0.00 0.00 0.00 0.00 0.00 0.00 0.00 0.01 0.01 0.00 0.00 0.00 0.01 0.02 0.03 0.03 0.04 0.06 0.08 0.09
0.00 0.00 0.00 0.00 0.00 0.00 0.00 0.00 0.00 0.00 0.00 0.00 0.00 0.00 0.00 0.00 0.00 0.00 0.00 0.00 0.00 0.00 0.00 0.00 0.00 0.00 0.00 0.01 0.01 0.00 0.01 0.01 0.00 0.00 0.00 0.00 0.01 0.02 0.02 0.02 0.03 0.04 0.06
0.00 0.00 0.00 0.00 0.00 0.00 0.00 0.00 0.00 0.00 0.00 0.00 0.00 0.00 0.00 0.00 0.00 0.00 0.00 0.00 0.00 0.00 0.00 0.00 0.00 0.00 0.00 0.00 0.01 0.01 0.00 0.00 0.00 0.01 0.00 0.00 0.00 0.01 0.01 0.01 0.01 0.01 0.02
0.00 0.00 0.00 0.00 0.00 0.00 0.00 0.00 0.00 0.00 0.00 0.00 0.00 0.00 0.00 0.00 0.00 0.00 0.01 0.00 0.00 0.00 0.01 0.01 0.00 0.00 0.00 0.00 0.00 0.00 0.00 0.00 0.00 0.00 0.00 0.00 0.00 0.00 0.00 0.00 0.00 0.00 0.01
0.00 0.00 0.00 0.00 0.00 0.00 0.00 0.00 0.00 0.00 0.00 0.00 0.00 0.00 0.00 0.00 0.01 0.01 0.01 0.01 0.00 0.00 0.01 0.01 0.00 0.00 0.00 0.00 0.00 0.00 0.00 0.00 0.00 0.00 0.00 0.00 0.00 0.00 0.00 0.00 0.00 0.00 0.01
0.00 0.00 0.00 0.00 0.00 0.00 0.00 0.00 0.00 0.00 0.00 0.00 0.00 0.00 0.00 0.00 0.00 0.00 0.00 0.00 0.00 0.00 0.00 0.00 0.00 0.00 0.00 0.01 0.00 0.00 0.00 0.00 0.00 0.00 0.01 0.00 0.01 0.01 0.01 0.01 0.00 0.00 0.00
0.00 0.00 0.00 0.00 0.00 0.00 0.00 0.00 0.00 0.00 0.00 0.00 0.00 0.00 0.00 0.00 0.00 0.00 0.00 0.00 0.00 0.00 0.00 0.00 0.00 0.00 0.01 0.01 0.01 0.01 0.00 0.01 0.01 0.01 0.02 0.01 0.01 0.02 0.02 0.02 0.01 0.00 0.00
0.00 0.00 0.00 0.00 0.00 0.00 0.00 0.00 0.00 0.00 0.00 0.00 0.00 0.00 0.00 0.00 0.00 0.00 0.00 0.00 0.00 0.00 0.00 0.00 0.00 0.00 0.00 0.01 0.02 0.01 0.02 0.02 0.01 0.01 0.02 0.01 0.01 0.01 0.01 0.01 0.01 0.01 0.00
0.00 0.00 0.00 0.00 0.00 0.00 0.00 0.00 0.00 0.00 0.00 0.00 0.00 0.00 0.00 0.00 0.00 0.00 0.01 0.01 0.01 0.01 0.01 0.01 0.01 0.01 0.01 0.02 0.02 0.02 0.01 0.01 0.01 0.01 0.02 0.01 0.01 0.01 0.01 0.02 0.01 0.01 0.00
0.00 0.00 0.00 0.00 0.00 0.00 0.00 0.00 0.00 0.00 0.00 0.00 0.00 0.00 0.00 0.00 0.00 0.00 0.00 0.01 0.01 0.01 0.00 0.00 0.00 0.00 0.00 0.00 0.00 0.00 0.00 0.01 0.01 0.01 0.02 0.02 0.01 0.01 0.01 0.01 0.01 0.01 0.01
0.00 0.00 0.00 0.00 0.00 0.00 0.00 0.00 0.00 0.00 0.00 0.00 0.00 0.00 0.00 0.00 0.00 0.00 0.00 0.01 0.01 0.01 0.02 0.01 0.02 0.01 0.01 0.01 0.01 0.00 0.00 0.00 0.01 0.01 0.02 0.04 0.02 0.04 0.02 0.01 0.02 0.02 0.02
MSLP
1014.87 1015.17 1015.40 1015.57 1015.70 1015.81 1015.91 1016.02 1016.12 1016.20 1016.26 1016.29 1016.28 1016.26 1016.25 1016.26 1016.31 1016.41 1016.57 1016.76 1016.99 1017.25 1017.54 1017.86 1018.20 1018.58 1018.99 1019.41 1019.83 1020.23 1020.59 1020.89 1021.14 1021.34 1021.52 1021.68 1021.86 1022.04 1022.23 1022.43 1022.62 1022.80 1022.96
1014.83 1015.13 1015.36 1015.54 1015.67 1015.79 1015.90 1016.01 1016.12 1016.22 1016.29 1016.34 1016.35 1016.34 1016.31 1016.27 1016.25 1016.27 1016.33 1016.44 1016.61 1016.85 1017.14 1017.49 1017.90 1018.35 1018.83 1019.30 1019.76 1020.18 1020.55 1020.86 1021.12 1021.33 1021.53 1021.73 1021.93 1022.14 1022.35 1022.55 1022.73 1022.89 1023.03
1014.81 1015.08 1015.30 1015.48 1015.62 1015.74 1015.85 1015.96 1016.08 1016.19 1016.29 1016.36 1016.39 1016.38 1016.34 1016.27 1016.20 1016.14 1016.12 1016.16 1016.27 1016.47 1016.76 1017.13 1017.58 1018.08 1018.60 1019.12 1019.60 1020.03 1020.40 1020.71 1020.97 1021.20 1021.42 1021.65 1021.89 1022.13 1022.37 1022.60 1022.79 1022.95 1023.09
1014.79 1015.03 1015.24 1015.42 1015.56 1015.68 1015.79 1015.90 1016.02 1016.14 1016.25 1016.34 1016.39 1016.40 1016.36 1016.28 1016.17 1016.07 1015.99 1015.96 1016.02 1016.18 1016.45 1016.83 1017.29 1017.80 1018.34 1018.86 1019.34 1019.76 1020.12 1020.42 1020.68 1020.92 1021.16 1021.41 1021.69 1021.97 1022.26 1022.52 1022.75 1022.93 1023.09
1014.76 1014.99 1015.19 1015.37 1015.52 1015.65 1015.75 1015.86 1015.97 1016.08 1016.20 1016.30 1016.37 1016.41 1016.39 1016.31 1016.20 1016.07 1015.96 1015.89 1015.91 1016.03 1016.26 1016.60 1017.03 1017.53 1018.04 1018.54 1019.00 1019.39 1019.72 1020.00 1020.25 1020.48 1020.74 1021.02 1021.32 1021.65 1021.97 1022.28 1022.55 1022.77 1022.96
1014.75 1014.96 1015.18 1015.37 1015.53 1015.66 1015.77 1015.87 1015.96 1016.06 1016.17 1016.28 1016.37 1016.43 1016.44 1016.39 1016.30 1016.17 1016.05 1015.96 1015.93 1016.00 1016.18 1016.46 1016.84 1017.28 1017.74 1018.19 1018.59 1018.94 1019.24 1019.49 1019.71 1019.94 1020.20 1020.49 1020.81 1021.17 1021.52 1021.87 1022.18 1022.45 1022.67
1014.75 1014.98 1015.22 1015.43 1015.62 1015.76 1015.87 1015.95 1016.02 1016.10 1016.20 1016.30 1016.40 1016.48 1016.52 1016.52 1016.45 1016.35 1016.23 1016.12 1016.07 1016.08 1016.19 1016.40 1016.70 1017.05 1017.43 1017.81 1018.16 1018.46 1018.71 1018.93 1019.13 1019.35 1019.59 1019.88 1020.21 1020.56 1020.94 1021.30 1021.64 1021.95 1022.22
1014.80 1015.05 1015.32 1015.56 1015.77 1015.93 1016.03 1016.10 1016.15 1016.21 1016.28 1016.37 1016.47 1016.57 1016.64 1016.67 1016.65 1016.58 1016.47 1016.36 1016.27 1016.23 1016.27 1016.39 1016.59 1016.85 1017.14 1017.44 1017.72 1017.97 1018.18 1018.37 1018.56 1018.75 1018.98 1019.25 1019.56 1019.91 1020.27 1020.64 1020.99 1021.32 1021.63
1014.90 1015.17 1015.47 1015.74 1015.97 1016.14 1016.25 1016.31 1016.34 1016.37 1016.42 1016.49 1016.59 1016.69 1016.79 1016.85 1016.86 1016.82 1016.72 1016.61 1016.49 1016.40 1016.37 1016.41 1016.51 1016.67 1016.87 1017.09 1017.31 1017.51 1017.70 1017.86 1018.03 1018.21 1018.41 1018.65 1018.93 1019.24 1019.57 1019.92 1020.27 1020.61 1020.94
1015.04 1015.33 1015.64 1015.93 1016.18 1016.36 1016.47 1016.52 1016.54 1016.55 1016.57 1016.63 1016.72 1016.83 1016.94 1017.02 1017.06 1017.04 1016.96 1016.84 1016.70 1016.56 1016.46 1016.42 1016.43 1016.50 1016.62 1016.77 1016.94 1017.10 1017.26 1017.41 1017.56 1017.71 1017.89 1018.09 1018.33 1018.59 1018.88 1019.20 1019.52 1019.86 1020.20
1015.20 1015.49 1015.80 1016.10 1016.35 1016.53 1016.65 1016.70 1016.71 1016.71 1016.73 1016.78 1016.86 1016.97 1017.08 1017.17 1017.23 1017.22 1017.15 1017.02 1016.86 1016.69 1016.54 1016.42 1016.35 1016.35 1016.39 1016.48 1016.60 1016.72 1016.86 1016.99 1017.12 1017.26 1017.40 1017.57 1017.76 1017.97 1018.22 1018.49 1018.79 1019.11 1019.45
1015.38 1015.65 1015.93 1016.21 1016.45 1016.63 1016.75 1016.81 1016.83 1016.84 1016.86 1016.91 1016.99 1017.09 1017.21 1017.31 1017.37 1017.37 1017.30 1017.17 1017.00 1016.79 1016.59 1016.42 1016.29 1016.22 1016.20 1016.22 1016.29 1016.37 1016.47 1016.58 1016.69 1016.80 1016.91 1017.04 1017.19 1017.36 1017.56 1017.80 1018.07 1018.38 1018.71
1015.54 1015.77 1016.02 1016.26 1016.48 1016.65 1016.77 1016.85 1016.89 1016.92 1016.95 1017.01 1017.10 1017.21 1017.33 1017.43 1017.50 1017.50 1017.43 1017.30 1017.11 1016.89 1016.66 1016.44 1016.26 1016.12 1016.04 1016.00 1016.00 1016.04 1016.09 1016.16 1016.23 1016.30 1016.39 1016.48 1016.60 1016.74 1016.91 1017.12 1017.38 1017.67 1018.00
1015.68 1015.86 1016.05 1016.26 1016.44 1016.61 1016.73 1016.83 1016.89 1016.95 1017.02 1017.10 1017.20 1017.32 1017.44 1017.54 1017.61 1017.61 1017.54 1017.41 1017.22 1016.99 1016.74 1016.49 1016.26 1016.07 1015.93 1015.82 1015.76 1015.72 1015.71 1015.72 1015.74 1015.77 1015.82 1015.88 1015.96 1016.08 1016.24 1016.44 1016.69 1016.98 1017.31
1015.78 1015.91 1016.05 1016.22 1016.38 1016.53 1016.66 1016.77 1016.87 1016.96 1017.06 1017.17 1017.29 1017.42 1017.54 1017.64 1017.70 1017.71 1017.65 1017.52 1017.34 1017.11 1016.85 1016.59 1016.33 1016.09 1015.88 1015.70 1015.56 1015.45 1015.36 1015.29 1015.25 1015.22 1015.22 1015.25 1015.31 1015.42 1015.57 1015.77 1016.02 1016.31 1016.64
1015.84 1015.93 1016.04 1016.17 1016.30 1016.44 1016.58 1016.71 1016.83 1016.95 1017.08 1017.21 1017.35 1017.49 1017.61 1017.71 1017.77 1017.78 1017.73 1017.62 1017.45 1017.24 1016.99 1016.72 1016.44 1016.16 1015.90 1015.66 1015.44 1015.24 1015.06 1014.91 1014.79 1014.71 1014.66 1014.65 1014.69 1014.78 1014.92 1015.12 1015.37 1015.67 1015.99
1015.85 1015.93 1016.02 1016.13 1016.25 1016.38 1016.52 1016.65 1016.79 1016.93 1017.07 1017.22 1017.36 1017.50 1017.62 1017.72 1017.78 1017.80 1017.76 1017.67 1017.53 1017.35 1017.12 1016.86 1016.58 1016.29 1015.99 1015.69 1015.40 1015.13 1014.87 1014.64 1014.45 1014.30 1014.19 1014.14 1014.15 1014.22 1014.35 1014.54 1014.78 1015.06 1015.38
1015.80 1015.89 1015.98 1016.09 1016.21 1016.33 1016.47 1016.60 1016.74 1016.88 1017.02 1017.16 1017.30 1017.43 1017.55 1017.64 1017.71 1017.74 1017.72 1017.66 1017.56 1017.40 1017.21 1016.99 1016.72 1016.43 1016.12 1015.79 1015.46 1015.13 1014.81 1014.52 1014.26 1014.05 1013.89 1013.79 1013.75 1013.79 1013.88 1014.04 1014.25 1014.51 1014.80
1015.70 1015.81 1015.92 1016.04 1016.16 1016.28 1016.40 1016.53 1016.65 1016.77 1016.90 1017.02 1017.14 1017.26 1017.37 1017.46 1017.53 1017.57 1017.58 1017.55 1017.49 1017.38 1017.24 1017.05 1016.83 1016.56 1016.26 1015.93 1015.58 1015.22 1014.87 1014.54 1014.23 1013.97 1013.76 1013.61 1013.52 1013.50 1013.54 1013.64 1013.80 1014.01 1014.26
1015.53 1015.67 1015.81 1015.94 1016.07 1016.19 1016.29 1016.39 1016.49 1016.58 1016.68 1016.77 1016.87 1016.97 1017.07 1017.16 1017.23 1017.29 1017.33 1017.34 1017.32 1017.26 1017.17 1017.03 1016.85 1016.63 1016.36 1016.06 1015.72 1015.37 1015.01 1014.66 1014.33 1014.04 1013.78 1013.58 1013.43 1013.34 1013.30 1013.33 1013.41 1013.55 1013.73
1015.29 1015.47 1015.63 1015.78 1015.91 1016.02 1016.10 1016.17 1016.24 1016.29 1016.36 1016.42 1016.50 1016.58 1016.67 1016.76 1016.84 1016.92 1016.98 1017.03 1017.05 1017.04 1016.99 1016.91 1016.78 1016.60 1016.38 1016.12 1015.82 1015.50 1015.16 1014.82 1014.49 1014.17 1013.89 1013.64 1013.42 1013.26 1013.14 1013.07 1013.06 1013.10 1013.21
1015.00 1015.20 1015.38 1015.53 1015.66 1015.75 1015.82 1015.86 1015.89 1015.91 1015.94 1015.98 1016.04 1016.11 1016.19 1016.29 1016.39 1016.48 1016.57 1016.64 1016.69 1016.72 1016.71 1016.66 1016.57 1016.44 1016.27 1016.05 1015.81 1015.53 1015.23 1014.91 1014.60 1014.28 1013.98 1013.69 1013.43 1013.19 1012.98 1012.82 1012.71 1012.66 1012.68
1014.65 1014.86 1015.05 1015.20 1015.32 1015.40 1015.44 1015.45 1015.46 1015.45 1015.46 1015.48 1015.53 1015.60 1015.69 1015.79 1015.90 1016.01 1016.12 1016.21 1016.27 1016.31 1016.32 1016.30 1016.23 1016.13 1016.00 1015.82 1015.62 1015.38 1015.13 1014.86 1014.57 1014.27 1013.97 1013.66 1013.36 1013.07 1012.79 1012.55 1012.35 1012.21 1012.14
1014.27 1014.47 1014.65 1014.79 1014.90 1014.96 1014.99 1014.98 1014.97 1014.95 1014.95 1014.97 1015.01 1015.08 1015.18 1015.30 1015.42 1015.54 1015.65 1015.74 1015.81 1015.84 1015.85 1015.82 1015.76 1015.67 1015.54 1015.39 1015.22 1015.02 1014.81 1014.58 1014.33 1014.06 1013.78 1013.48 1013.16 1012.84 1012.52 1012.22 1011.96 1011.75 1011.60
1013.86 1014.03 1014.19 1014.32 1014.41 1014.46 1014.48 1014.47 1014.45 1014.43 1014.43 1014.45 1014.50 1014.58 1014.69 1014.81 1014.94 1015.06 1015.17 1015.25 1015.29 1015.31 1015.29 1015.23 1015.15 1015.04 1014.91 1014.77 1014.61 1014.44 1014.26 1014.06 1013.86 1013.63 1013.38 1013.10 1012.81 1012.49 1012.16 1011.84 1011.55 1011.29 1011.09
1013.39 1013.55 1013.68 1013.79 1013.88 1013.92 1013.94 1013.94 1013.92 1013.91 1013.92 1013.95 1014.01 1014.09 1014.20 1014.32 1014.44 1014.55 1014.64 1014.69 1014.71 1014.69 1014.63 1014.54 1014.42 1014.28 1014.13 1013.97 1013.81 1013.66 1013.50 1013.34 1013.17 1012.99 1012.79 1012.56 1012.31 1012.03 1011.73 1011.42 1011.12 1010.85 1010.62
Thickness
5746 5745 5743 5741 5740 5739 5738 5736 5735 5735 5735 5735 5735 5736 5737 5737 5737 5736 5732 5731 5730 5730 5730 5728 5727 5727 5726 5725 5724 5723 5723 5722 5721 5720 5719 5719 5718 5717 5717 5716 5715 5714 5713
5743 5742 5740 5738 5738 5737 5736 5735 5734 5733 5732 5732 5732 5732 5733 5734 5734 5733 5731 5730 5729 5729 5728 5727 5727 5726 5725 5724 5723 5722 5722 5721 5720 5719 5718 5718 5717 5716 5716 5715 5714 5713 5712
5741 5740 5738 5736 5735 5735 5733 5733 5732 5731 5730 5730 5729 5729 5730 5730 5730 5730 5729 5729 5728 5727 5726 5726 5726 5725 5724 5723 5722 5721 5720 5720 5719 5718 5717 5716 5716 5715 5715 5714 5713 5712 5711
5740 5738 5736 5734 5734 5733 5732 5731 5730 5728 5727 5726 5726 5727 5728 5727 5727 5728 5728 5727 5726 5726 5725 5724 5724 5723 5723 5722 5721 5720 5719 5718 5718 5717 5716 5715 5714 5714 5714 5713 5712 5711 5711
5738 5737 5734 5732 5732 5731 5730 5730 5727 5725 5724 5724 5724 5726 5726 5726 5726 5726 5726 5725 5725 5724 5724 5723 5722 5722 5721 5720 5720 5719 5718 5717 5716 5716 5715 5714 5713 5712 5712 5712 5711 5710 5710
5735 5734 5733 5731 5731 5729 5728 5726 5724 5724 5723 5723 5724 5725 5725 5726 5726 5725 5725 5724 5723 5722 5722 5721 5720 5720 5720 5719 5718 5718 5717 5716 5715 5714 5713 5713 5712 5712 5711 5710 5710 5709 5709
5733 5733 5732 5730 5729 5727 5725 5724 5723 5721 5721 5722 5719 5719 5723 5726 5725 5724 5724 5723 5722 5721 5720 5719 5718 5717 5717 5717 5716 5716 5715 5714 5713 5712 5712 5711 5711 5711 5710 5709 5709 5708 5708
5732 5733 5730 5729 5728 5725 5723 5723 5721 5718 5719 5720 5716 5712 5712 5715 5720 5723 5721 5720 5720 5719 5718 5717 5716 5715 5714 5714 5714 5713 5712 5711 5711 5710 5710 5710 5710 5710 5709 5708 5708 5707 5707
5730 5729 5728 5727 5726 5724 5721 5721 5719 5717 5714 5716 5717 5711 5704 5701 5707 5714 5716 5716 5715 5715 5715 5714 5714 5713 5712 5712 5711 5710 5709 5708 5708 5708 5708 5708 5708 5708 5708 5707 5707 5706 5706
5729 5727 5726 5725 5723 5722 5720 5719 5716 5716 5713 5711 5712 5712 5709 5705 5699 5700 5706 5710 5711 5711 5711 5712 5711 5710 5709 5709 5708 5708 5707 5706 5706 5705 5705 5705 5705 5705 5705 5705 5705 5705 5704
5727 5726 5724 5722 5721 5720 5717 5716 5714 5713 5711 5708 5707 5707 5706 5705 5703 5696 5694 5699 5703 5706 5707 5707 5707 5706 5706 5705 5705 5704 5704 5703 5702 5702 5702 5702 5702 5702 5703 5703 5703 5703 5703
5725 5724 5722 5720 5719 5717 5715 5713 5711 5710 5708 5705 5704 5703 5701 5698 5696 5694 5690 5691 5693 5699 5703 5703 5703 5702 5701 5701 5700 5699 5699 5698 5698 5698 5698 5698 5699 5699 5700 5700 5700 5700 5701
5723 5721 5721 5719 5717 5715 5713 5711 5709 5707 5705 5702 5700 5699 5698 5697 5696 5693 5688 5687 5687 5691 5696 5698 5698 5697 5696 5695 5693 5693 5693 5692 5692 5692 5693 5694 5695 5696 5696 5697 5697 5698 5699
5724 5721 5719 5717 5715 5713 5712 5709 5708 5705 5703 5700 5699 5696 5694 5694 5693 5691 5686 5682 5678 5681 5685 5688 5692 5691 5690 5688 5687 5686 5686 5686 5686 5687 5688 5689 5690 5691 5693 5694 5694 5696 5697
5722 5720 5718 5716 5713 5711 5709 5707 5704 5702 5700 5697 5696 5694 5691 5690 5690 5688 5685 5682 5675 5669 5671 5678 5681 5684 5683 5682 5680 5679 5679 5679 5680 5681 5682 5683 5685 5686 5688 5689 5690 5692 5693
5720 5718 5716 5714 5711 5709 5707 5704 5703 5701 5698 5695 5692 5690 5687 5686 5684 5683 5681 5679 5676 5670 5666 5671 5673 5676 5675 5674 5673 5672 5672 5673 5674 5675 5676 5678 5679 5680 5682 5684 5685 5687 5688
5717 5715 5713 5711 5709 5707 5705 5702 5700 5699 5695 5693 5690 5688 5685 5683 5680 5677 5676 5674 5672 5669 5663 5665 5668 5669 5669 5668 5667 5666 5666 5668 5669 5670 5671 5672 5673 5674 5676 5678 5679 5681 5683
5716 5714 5712 5710 5708 5706 5703 5701 5698 5697 5693 5690 5687 5685 5682 5680 5676 5674 5671 5669 5667 5665 5661 5658 5659 5661 5662 5662 5662 5662 5662 5664 5665 5666 5667 5668 5668 5669 5670 5671 5673 5675 5677
5714 5712 5710 5708 5706 5704 5702 5699 5696 5694 5691 5688 5685 5682 5679 5676 5673 5670 5667 5665 5663 5662 5659 5655 5654 5656 5656 5657 5656 5656 5657 5657 5659 5661 5662 5662 5662 5663 5663 5665 5666 5668 5670
5713 5711 5708 5706 5704 5702 5700 5697 5694 5691 5688 5685 5683 5680 5677 5674 5670 5667 5664 5661 5659 5655 5653 5651 5650 5650 5650 5651 5650 5647 5647 5649 5650 5653 5654 5656 5656 5657 5657 5659 5660 5661 5663
5712 5709 5706 5704 5702 5700 5698 5695 5691 5689 5685 5682 5680 5678 5675 5673 5669 5665 5661 5658 5654 5650 5647 5645 5643 5643 5642 5641 5639 5639 5637 5639 5641 5643 5644 5647 5649 5650 5650 5651 5653 5655 5657
5709 5707 5704 5701 5699 5699 5695 5691 5687 5684 5681 5679 5676 5674 5673 5670 5667 5663 5658 5654 5649 5644 5641 5637 5635 5634 5633 5633 5632 5630 5628 5627 5627 5632 5632 5634 5637 5640 5643 5645 5648 5650 5651
5706 5703 5701 5698 5696 5693 5690 5686 5682 5679 5676 5674 5672 5670 5669 5669 5665 5661 5656 5651 5646 5642 5637 5633 5630 5628 5627 5626 5624 5622 5620 5618 5618 5621 5620 5623 5627 5629 5635 5638 5642 5644 5645
5703 5700 5697 5695 5693 5690 5686 5682 5678 5674 5672 5671 5669 5667 5665 5663 5661 5657 5653 5649 5645 5642 5638 5632 5629 5627 5625 5623 5619 5616 5614 5613 5614 5615 5614 5614 5618 5621 5627 5630 5633 5636 5638
5700 5697 5694 5692 5689 5687 5683 5679 5674 5671 5669 5668 5667 5666 5664 5661 5658 5653 5648 5644 5641 5638 5636 5634 5630 5627 5623 5619 5615 5609 5607 5604 5606 5608 5609 5608 5610 5612 5616 5620 5624 5627 5630
5696 5694 5691 5689 5687 5684 5681 5676 5670 5668 5667 5666 5665 5665 5663 5659 5656 5650 5644 5640 5635 5634 5631 5629 5625 5622 5619 5616 5612 5606 5602 5599 5599 5601 5603 5602 5602 5602 5604 5610 5614 5617 5620